{"data":{"norad_id":52843,"intl_designator":"2022-062P","name":"STARLINK-4188","alt_names":[],"object_type":"PAYLOAD","status":"ACTIVE","operator":null,"country":"US","launch_date":"2022-06-17","launch_site_code":"AFETR","launch_vehicle":null,"mission":null,"orbit_class":"UNKNOWN","rcs_meters":null,"size_class":null,"mass_kg":null,"dimensions":null,"purposes":["comms"],"wikipedia_slug":null,"has_3d_model":false,"image_url":null,"decayed_at":null,"tle_current":{"epoch":"2026-09-19T22:12:27.808704Z","epoch_age_seconds":116081,"freshness":"FRESH","line1":"1 52843U 22062P   26262.92532186 -.00000608  00000+0 -78184-5 0  9996","line2":"2 52843  53.1592 231.5779 0001021  79.6042 280.5074 15.31702630235256","mean_motion":15.3170263,"eccentricity":0.0001021,"inclination_deg":53.1592,"raan_deg":231.5779,"arg_perigee_deg":79.6042,"mean_anomaly_deg":280.5074,"bstar":-7.8184e-6,"rev_number":23525,"period_min":94.013026536358,"perigee_km":470.03288580296,"apogee_km":471.43142488448,"semimajor_km":6848.8691553437,"source":"CELESTRAK","updated_at":"2026-09-20T09:00:40.113418Z"}}}